Home > Weather > Compton > Past weeks

Flag for U.S.A. Weather for the Past 2 Weeks in Compton, California, U.S.A.

Now
82 °F

Sunny.


Feels Like: 80 °F
Forecast: 50 / 82 °F
Wind: 8 mph from West

Location: Hawthorne Municipal Airport

Current Time: Feb 7, 2016 at 3:01:53 PM

Latest Report: Feb 7, 2016 at 1:53 PM


Visibility: 10 mi

Pressure: 30.08 "Hg

Humidity: 9%

Dew point: 17 °F

Location of ComptonLocation

Historic Weather in Compton — Graph

°F

Compton Temperature Yesterday

Maximum temperature yesterday: 78 °F (at 1:53 PM)
Minimum temperature yesterday: 51 °F (at 6:53 AM)
Average temperature yesterday: 63 °F

High & Low Weather Summary for the Past Weeks

 TemperatureHumidityPressure
High83 °F (Feb 7, 12:53 PM)93% (Jan 31, 8:58 AM)30.37 "Hg (Jan 31, 8:58 AM)
Low43 °F (Feb 2, 5:53 AM)7% (Feb 7, 12:53 PM)29.62 "Hg (Jan 31, 3:53 PM)
Average58 °F48%30.13 "Hg
* Reported Jan 23 12:58 PM — Feb 7 12:53 PM, Compton, Weather by CustomWeather, © 2016

Note: Actual official high and low records may vary slightly from our data, if they occured in-between our weather recording intervals... More about our weather records

Advertising

Compton Weather History for the Previous 24 Hours

 ConditionsComfort  
Time TempWeatherWind HumidityBarometerVisibility
12:53 PM
Sun, Feb 7
83 °FSunny.6 mph7%30.09 "Hg10 mi
11:53 AM80 °FSunny.3 mph8%30.11 "Hg10 mi
10:53 AM75 °FSunny.3 mph12%30.14 "Hg10 mi
9:53 AM72 °FSunny.No wind15%30.15 "Hg10 mi
8:53 AM67 °FSunny.No wind20%30.15 "Hg10 mi
7:53 AM60 °FSunny.No wind27%30.14 "Hg10 mi
6:53 AM51 °FSunny.No wind41%30.14 "Hg10 mi
5:53 AM51 °FClear.No wind42%30.13 "Hg10 mi
4:53 AM54 °FClear.No wind34%30.13 "Hg10 mi
3:53 AM54 °FClear.No wind37%30.13 "Hg10 mi
2:53 AM54 °FClear.No wind40%30.14 "Hg10 mi
1:53 AM56 °FClear.No wind36%30.15 "Hg10 mi
12:53 AM57 °FClear.No wind34%30.16 "Hg10 mi
11:53 PM
Sat, Feb 6
59 °FClear.3 mph32%30.15 "Hg10 mi
10:53 PM59 °FClear.No wind35%30.16 "Hg10 mi
9:53 PM60 °FClear.No wind33%30.16 "Hg10 mi
8:53 PM62 °FClear.No wind29%30.16 "Hg10 mi
7:53 PM64 °FClear.No wind26%30.16 "Hg10 mi
6:53 PM67 °FClear.No wind20%30.15 "Hg10 mi
5:53 PM69 °FClear.3 mph16%30.14 "Hg10 mi
4:53 PM70 °FSunny.6 mph19%30.14 "Hg10 mi
3:53 PM73 °FSunny.7 mph17%30.14 "Hg10 mi
Weather by CustomWeather, © 2016

See weather overviewHow to use our weather pages